When you browse on this site, cookies collect data to enhance your experience and personalize the content and advertising you see.
Visit our Privacy Policy to learn more. By continuing to use the site, you agree to this use of cookies and data.
  • Em Portugal
  • Lista de países
  • Para 7 dias
  • Temperatura da água
  • Mapas de satélite
  • Mapa do tempo
  • Widgets de tempo
  • user-avatar
    Iniciar Sessão

    Previsão horária em Kakanj

    Hoje, 21 Abril, Domingo

    Tempo Temperatura Precipitação Vento Pressão Humidade
    00:00 +8°C° 0 mm 1 m/s 729 mmHg 76%
    01:00 +8°C° 0 mm 1 m/s 729 mmHg 78%
    02:00 +7°C° 0 mm 1 m/s 728 mmHg 79%
    03:00 +7°C° 0 mm 1 m/s 728 mmHg 80%
    04:00 +7°C° 0 mm 1 m/s 728 mmHg 81%
    05:00 +8°C° 0 mm 1 m/s 728 mmHg 75%
    06:00 +10°C° 0 mm 1 m/s 728 mmHg 69%
    07:00 +11°C° 0 mm 1 m/s 728 mmHg 64%
    08:00 +14°C° 0 mm 1 m/s 728 mmHg 53%
    09:00 +18°C° 0 mm 1 m/s 728 mmHg 43%
    10:00 +21°C° 0 mm 1 m/s 728 mmHg 33%
    11:00 +20°C° 0 mm 0 m/s 728 mmHg 31%
    12:00 +21°C° 0 mm 0 m/s 728 mmHg 29%
    13:00 +22°C° 0 mm 0 m/s 727 mmHg 27%
    14:00 +21°C° 0 mm 0 m/s 727 mmHg 28%
    15:00 +22°C° 0 mm 1 m/s 726 mmHg 29%
    16:00 +22°C° 0 mm 1 m/s 726 mmHg 29%
    17:00 +19°C° 0 mm 1 m/s 725 mmHg 39%
    18:00 +16°C° 0 mm 1 m/s 725 mmHg 49%
    19:00 +12°C° 0 mm 0 m/s 725 mmHg 59%
    20:00 +12°C° 0 mm 1 m/s 725 mmHg 65%
    21:00 +12°C° 0 mm 1 m/s 725 mmHg 72%
    22:00 +11°C° 0 mm 1 m/s 725 mmHg 78%
    23:00 +11°C° 0 mm 1 m/s 725 mmHg 83%

    Amanhã, 22 Abril, Segunda-feira

    Tempo Temperatura Precipitação Vento Pressão Humidade
    00:00 +10°C° 0 mm 1 m/s 725 mmHg 87%
    01:00 +10°C° 0 mm 1 m/s 724 mmHg 92%
    02:00 +9°C° 0 mm 2 m/s 724 mmHg 92%
    03:00 +8°C° 0 mm 2 m/s 724 mmHg 92%
    04:00 +8°C° 0 mm 2 m/s 723 mmHg 92%
    05:00 +9°C° 0 mm 2 m/s 723 mmHg 86%
    06:00 +10°C° 0 mm 2 m/s 723 mmHg 80%
    07:00 +12°C° 0 mm 2 m/s 723 mmHg 75%
    08:00 +15°C° 0 mm 2 m/s 723 mmHg 64%
    09:00 +17°C° 0 mm 2 m/s 722 mmHg 54%
    10:00 +19°C° 0 mm 2 m/s 722 mmHg 43%
    11:00 +20°C° 0 mm 2 m/s 722 mmHg 41%
    12:00 +21°C° 0 mm 3 m/s 721 mmHg 39%
    13:00 +21°C° 0 mm 3 m/s 721 mmHg 37%
    14:00 +21°C° 0 mm 3 m/s 720 mmHg 40%
    15:00 +20°C° 0 mm 3 m/s 720 mmHg 44%
    16:00 +20°C° 0 mm 4 m/s 719 mmHg 48%
    17:00 +18°C° 0 mm 3 m/s 719 mmHg 54%
    18:00 +16°C° 0 mm 3 m/s 719 mmHg 60%
    19:00 +14°C° 0 mm 2 m/s 718 mmHg 67%
    20:00 +13°C° 0 mm 2 m/s 718 mmHg 70%
    21:00 +13°C° 0 mm 2 m/s 719 mmHg 73%
    22:00 +12°C° 0 mm 2 m/s 719 mmHg 77%
    23:00 +12°C° 0.5 mm 2 m/s 719 mmHg 82%

    Depois de amanhã, 23 Abril, Terça-feira

    Tempo Temperatura Precipitação Vento Pressão Humidade
    00:00 +12°C° 0.5 mm 2 m/s 718 mmHg 86%
    01:00 +10°C° 0.5 mm 2 m/s 718 mmHg 91%
    02:00 +10°C° 0 mm 2 m/s 718 mmHg 90%
    03:00 +10°C° 0 mm 2 m/s 717 mmHg 90%
    04:00 +10°C° 0 mm 3 m/s 717 mmHg 89%
    05:00 +11°C° 0 mm 3 m/s 717 mmHg 85%
    06:00 +12°C° 0 mm 3 m/s 717 mmHg 81%
    07:00 +13°C° 0 mm 3 m/s 717 mmHg 77%
    08:00 +14°C° 0 mm 4 m/s 717 mmHg 72%
    09:00 +15°C° 0 mm 4 m/s 717 mmHg 68%
    10:00 +17°C° 0 mm 4 m/s 717 mmHg 63%
    11:00 +17°C° 0 mm 5 m/s 717 mmHg 62%
    12:00 +17°C° 0 mm 5 m/s 717 mmHg 61%
    13:00 +19°C° 0 mm 5 m/s 717 mmHg 60%
    14:00 +19°C° 0 mm 5 m/s 717 mmHg 62%
    15:00 +17°C° 0 mm 5 m/s 717 mmHg 63%
    16:00 +18°C° 0 mm 4 m/s 717 mmHg 65%
    17:00 +17°C° 0 mm 4 m/s 717 mmHg 71%
    18:00 +16°C° 0 mm 3 m/s 718 mmHg 78%
    19:00 +14°C° 0 mm 2 m/s 718 mmHg 84%
    20:00 +14°C° 0 mm 2 m/s 718 mmHg 86%
    21:00 +14°C° 0 mm 2 m/s 719 mmHg 87%
    22:00 +13°C° 0 mm 2 m/s 720 mmHg 88%
    23:00 +13°C° 0.1 mm 2 m/s 720 mmHg 89%

    24 Abril, Quarta-feira

    Tempo Temperatura Precipitação Vento Pressão Humidade
    00:00 +13°C° 0.1 mm 2 m/s 720 mmHg 89%
    01:00 +13°C° 0.1 mm 2 m/s 721 mmHg 90%
    02:00 +13°C° 0 mm 2 m/s 721 mmHg 91%
    03:00 +13°C° 0 mm 2 m/s 721 mmHg 91%
    04:00 +13°C° 0 mm 2 m/s 721 mmHg 92%
    05:00 +14°C° 0 mm 2 m/s 721 mmHg 89%
    06:00 +15°C° 0 mm 2 m/s 722 mmHg 85%
    07:00 +15°C° 0 mm 2 m/s 722 mmHg 82%
    08:00 +17°C° 0 mm 3 m/s 723 mmHg 74%
    09:00 +18°C° 0 mm 3 m/s 723 mmHg 67%
    10:00 +20°C° 0 mm 4 m/s 723 mmHg 60%
    11:00 +21°C° 0 mm 4 m/s 723 mmHg 56%
    12:00 +22°C° 0 mm 4 m/s 724 mmHg 51%
    13:00 +23°C° 0 mm 4 m/s 724 mmHg 47%
    14:00 +23°C° 0 mm 4 m/s 724 mmHg 48%
    15:00 +23°C° 0 mm 4 m/s 724 mmHg 48%
    16:00 +22°C° 0 mm 4 m/s 724 mmHg 49%
    17:00 +20°C° 0 mm 3 m/s 724 mmHg 58%
    18:00 +18°C° 0 mm 3 m/s 724 mmHg 68%
    19:00 +16°C° 0 mm 2 m/s 724 mmHg 77%
    20:00 +15°C° 0 mm 2 m/s 724 mmHg 80%
    21:00 +14°C° 0 mm 2 m/s 724 mmHg 83%
    22:00 +13°C° 0 mm 2 m/s 725 mmHg 85%
    23:00 +13°C° 0 mm 2 m/s 725 mmHg 85%

    25 Abril, Quinta-feira

    Tempo Temperatura Precipitação Vento Pressão Humidade
    00:00 +12°C° 0 mm 2 m/s 725 mmHg 84%
    01:00 +12°C° 0 mm 2 m/s 725 mmHg 83%
    02:00 +12°C° 0 mm 2 m/s 725 mmHg 84%
    03:00 +12°C° 0 mm 2 m/s 725 mmHg 84%
    04:00 +12°C° 0 mm 2 m/s 725 mmHg 85%
    05:00 +13°C° 0 mm 2 m/s 725 mmHg 81%
    06:00 +15°C° 0 mm 2 m/s 726 mmHg 76%
    07:00 +16°C° 0 mm 2 m/s 726 mmHg 71%
    08:00 +19°C° 0 mm 2 m/s 726 mmHg 62%
    09:00 +21°C° 0 mm 2 m/s 726 mmHg 53%
    10:00 +25°C° 0 mm 2 m/s 727 mmHg 44%
    11:00 +26°C° 0 mm 2 m/s 726 mmHg 41%
    12:00 +26°C° 0 mm 2 m/s 726 mmHg 37%
    13:00 +27°C° 0 mm 2 m/s 726 mmHg 34%
    14:00 +27°C° 0 mm 2 m/s 726 mmHg 36%
    15:00 +27°C° 0 mm 2 m/s 725 mmHg 38%
    16:00 +26°C° 0 mm 3 m/s 725 mmHg 40%
    17:00 +24°C° 0 mm 2 m/s 725 mmHg 50%
    18:00 +20°C° 0 mm 2 m/s 724 mmHg 61%
    19:00 +18°C° 0 mm 2 m/s 724 mmHg 71%
    20:00 +17°C° 0 mm 2 m/s 724 mmHg 75%
    21:00 +16°C° 0 mm 2 m/s 725 mmHg 79%
    22:00 +15°C° 0 mm 2 m/s 725 mmHg 83%
    23:00 +15°C° 0 mm 2 m/s 724 mmHg 83%

    26 Abril, Sexta-feira

    Tempo Temperatura Precipitação Vento Pressão Humidade
    00:00 +14°C° 0 mm 2 m/s 724 mmHg 82%
    01:00 +14°C° 0 mm 2 m/s 724 mmHg 81%
    02:00 +14°C° 0 mm 2 m/s 724 mmHg 80%
    03:00 +14°C° 0 mm 2 m/s 724 mmHg 79%
    04:00 +13°C° 0 mm 2 m/s 723 mmHg 78%
    05:00 +15°C° 0 mm 2 m/s 724 mmHg 74%
    06:00 +16°C° 0 mm 2 m/s 724 mmHg 69%
    07:00 +17°C° 0 mm 2 m/s 724 mmHg 64%
    08:00 +19°C° 0 mm 2 m/s 724 mmHg 56%
    09:00 +21°C° 0 mm 2 m/s 724 mmHg 49%
    10:00 +24°C° 0 mm 2 m/s 724 mmHg 42%
    11:00 +25°C° 0 mm 2 m/s 723 mmHg 39%
    12:00 +26°C° 0 mm 2 m/s 723 mmHg 37%
    13:00 +26°C° 0 mm 2 m/s 723 mmHg 35%
    14:00 +26°C° 0 mm 3 m/s 722 mmHg 37%
    15:00 +26°C° 0 mm 3 m/s 722 mmHg 38%
    16:00 +26°C° 0 mm 4 m/s 722 mmHg 40%
    17:00 +22°C° 0 mm 3 m/s 721 mmHg 49%
    18:00 +20°C° 0 mm 2 m/s 721 mmHg 58%
    19:00 +17°C° 0 mm 2 m/s 721 mmHg 67%
    20:00 +17°C° 0 mm 2 m/s 721 mmHg 70%
    21:00 +16°C° 0 mm 1 m/s 722 mmHg 74%
    22:00 +15°C° 0 mm 1 m/s 722 mmHg 77%
    23:00 +15°C° 0 mm 1 m/s 722 mmHg 80%
    Mostrar mais